Home > Weather > Alsdorf > Past weeks

Flag for Germany Past Weather in Alsdorf, North Rhine-Westphalia, Germany — Yesterday and Last 2 Weeks

Now
57 °F

Passing clouds.


Feels Like: 57 °F
Forecast: 56 / 67 °F
Wind: 5 mph from Southeast

Location: Geilenkirchen Airport

Current Time: Jun 28, 2016 at 12:09:26 AM

Latest Report: Jun 27, 2016 at 11:50 PM


Visibility: N/A

Pressure: 30.12 "Hg

Humidity: 94%

Dew Point: 55 °F

Location of AlsdorfLocation

Past Weather in Alsdorf — Graph

°F

Alsdorf Temperature Yesterday

Maximum temperature yesterday: 66 °F (at 5:50 PM)
Minimum temperature yesterday: 55 °F (at 4:50 AM)
Average temperature yesterday: 60 °F

High & Low Weather Summary for the Past Weeks

 TemperatureHumidityPressure
High91 °F (Jun 23, 4:50 PM)100% (Jun 13, 1:50 AM)30.24 "Hg (Jun 13, 1:50 AM)
Low48 °F (Jun 16, 2:50 AM)46% (Jun 23, 5:50 PM)29.47 "Hg (Jun 14, 4:50 PM)
Average63 °F82%29.87 "Hg
* Reported Jun 12 10:50 PM — Jun 27 10:50 PM, Alsdorf, Weather by CustomWeather, © 2016

Note: Actual official high and low records may vary slightly from our data, if they occured in-between our weather recording intervals... More about our weather records

Advertising

Alsdorf Weather History for the Previous 24 Hours

Scroll right to see more
 ConditionsComfort  
Time TempWeatherWind HumidityBarometerVisibility
10:50 PM
Mon, Jun 27
57 °FFog.5 mph94%30.12 "HgN/A
9:50 PM59 °FFog.5 mph94%30.09 "HgN/A
8:50 PM61 °FPartly sunny.6 mph94%30.09 "HgN/A
7:50 PM64 °FSprinkles. Broken clouds.8 mph83%30.07 "Hg4 mi
6:50 PM64 °FPartly sunny.8 mph88%30.07 "HgN/A
5:50 PM66 °FPartly sunny.12 mph78%30.07 "HgN/A
4:50 PM63 °FPartly sunny.7 mph94%30.07 "HgN/A
3:50 PM63 °FDrizzle. Broken clouds.8 mph94%30.07 "Hg2 mi
2:50 PM63 °FDrizzle. Broken clouds.10 mph88%30.07 "Hg3 mi
1:50 PM61 °FDrizzle. Broken clouds.8 mph94%30.07 "Hg3 mi
12:50 PM61 °FDrizzle. Broken clouds.12 mph88%30.07 "Hg4 mi
11:50 AM63 °FPartly sunny.13 mph77%30.07 "HgN/A
10:50 AM61 °FBroken clouds.13 mph77%30.07 "HgN/A
9:50 AM61 °FBroken clouds.12 mph72%30.07 "HgN/A
8:50 AM59 °FBroken clouds.8 mph77%30.07 "HgN/A
7:50 AM57 °FSunny.8 mph77%30.07 "Hg10 mi
6:50 AM55 °FSunny.7 mph82%30.09 "Hg10 mi
5:50 AM55 °FClear.8 mph88%30.09 "Hg10 mi
4:50 AM55 °FClear.8 mph82%30.09 "Hg10 mi
3:50 AM57 °FClear.8 mph82%30.09 "Hg10 mi
2:50 AM57 °FClear.7 mph82%30.09 "Hg10 mi
1:50 AM57 °FClear.7 mph88%30.09 "Hg10 mi
12:50 AM57 °FClear.6 mph82%30.09 "Hg10 mi
Weather by CustomWeather, © 2016

See weather overviewHow to use our weather pages